This is the latest recevied weather packets stored in our database for station/object WW4HG. If no packets are shown the sender has not sent any weather packets the latest 10 day(s).
| Time | Temp. | Humidity | Pressure | Rain* | Wind** | Luminosity | Snow |
|---|---|---|---|---|---|---|---|
| 1778173311 | 21.67° C | 58% | 1011.2 hPa | 0 mm | - | 148 W/m² | - |
| 1778173006 | 21.11° C | 58% | 1011.2 hPa | 0 mm | - | 142 W/m² | - |
| 1778172703 | 21.11° C | 58% | 1011.2 hPa | 0 mm | - | 142 W/m² | - |
| 1778172398 | 20.56° C | 59% | 1011.6 hPa | 0 mm | - | 135 W/m² | - |
| 1778172095 | 20.56° C | 60% | 1011.2 hPa | 0 mm | - | 83 W/m² | - |
| 1778171787 | 20° C | 60% | 1010.9 hPa | 0 mm | - | 120 W/m² | - |
| 1778171485 | 20° C | 60% | 1010.2 hPa | 0 mm | - | 113 W/m² | - |
| 1778171180 | 19.44° C | 60% | 1009.9 hPa | 0 mm | - | 90 W/m² | - |
| 1778170877 | 19.44° C | 62% | 1009.9 hPa | 0 mm | - | 76 W/m² | - |
| 1778170573 | 19.44° C | 62% | 1010.6 hPa | 0 mm | - | 50 W/m² | - |
| 1778170270 | 19.44° C | 63% | 1010.2 hPa | 0 mm | - | 52 W/m² | - |
| 1778169967 | 19.44° C | 63% | 1011.2 hPa | 0 mm | - | 60 W/m² | - |
| 1778169663 | 19.44° C | 63% | 1011.2 hPa | 0 mm | - | 51 W/m² | - |
| 1778169358 | 20° C | 62% | 1010.9 hPa | 0 mm | - | 55 W/m² | - |
| 1778169055 | 20° C | 62% | 1011.2 hPa | 0 mm | - | 53 W/m² | - |
| 1778168752 | 20° C | 62% | 1011.6 hPa | 1.78 mm | - | 54 W/m² | - |
| 1778168449 | 20° C | 62% | 1011.6 hPa | 1.78 mm | - | 61 W/m² | - |
| 1778168146 | 20.56° C | 61% | 1012.3 hPa | 0 mm | - | 80 W/m² | - |
| 1778167842 | 20.56° C | 61% | 1012.6 hPa | 0 mm | - | 91 W/m² | - |
| 1778167538 | 20.56° C | 60% | 1012.3 hPa | 1.78 mm | - | 106 W/m² | - |
| 1778167235 | 20.56° C | 58% | 1012.3 hPa | 1.78 mm | - | 87 W/m² | - |
| 1778166931 | 21.11° C | 57% | 1012.3 hPa | 0 mm | - | 81 W/m² | - |
| 1778166628 | 21.11° C | 57% | 1012.3 hPa | 0 mm | - | 67 W/m² | - |
| 1778166325 | 21.11° C | 56% | 1012.3 hPa | 0 mm | - | 44 W/m² | - |
| 1778166022 | 21.11° C | 56% | 1012.6 hPa | 0 mm | - | 44 W/m² | - |
* Rain latest hour (hover to see other rain measurements)
** Current wind speed in m/s (hover to see current wind gust speed)